FLOCK 3M-2

Last updated on Wed Feb 14 2018 16:20:55 GMT+0000 (Coordinated Universal Time)

1 42998U 17068M 18045.50129647 .00001119 00000-0 57032-4 0 9999 2 42998 97.3519 161.7860 0014407 208.6254 151.4191 15.18709232 16029
UTC large
Height (km)
Speed (km/s)
/
Latitude / Longitude
Inclination (degrees)
Orbital Period (minutes)
Azimuth
Elevation
Range (km)
Doppler Factor

Next 0 passes for location: London (51.5072 / 0.1276)

Sorry there are no passes over London.